View from above orbital plane
|
View from above satellite
|
Ground track
|
The orbit data is extracted from the following two-line orbital elements,
1 20855U 90081T 21016.87720894 -.00000089 00000-0 -27086-4 0 9999
2 20855 98.7054 30.9882 0023422 325.2699 99.9357 14.08687250560884
Epoch (UTC): | 16 January 2021 21:03:10 |
Eccentricity: | 0.0023422 |
inclination: | 98.7054° |
perigee height: | 847 km |
apogee height: | 881 km |
right ascension of ascending node: | 30.9882° |
argument of perigee: | 325.2699° |
revolutions per day: | 14.08687250 |
mean anomaly at epoch: | 99.9357° |
orbit number at epoch: | 56088 |
The dashed part of the orbit path shows where the satellite is in the earth's shadow,
|
|